Location: Gro�bocka
(50.8204°N, 11.9702°E)
Time: 07:55:24
(UTC+00:00)

Cosmos 1825 - Pass Details

Date: 29 October 2020
Orbit: 501 x 508 km, 82.5° (Epoch: 01 December)

Event Time Altitude Azimuth Distance (km) Brightness Sun altitude
Rises 17:08:26 0° 357° (N) 2,629 5.8 -12.6°
Reaches altitude 10° 17:10:44 10° 7° (N) 1,737 4.7 -13.0°
Maximum altitude 17:14:11 32° 72° (ENE) 895 2.8 -13.5°
Enters shadow 17:16:53 14° 131° (SE) 1,469 4.1 -13.9°
